Find Starlink 37594

NORAD ID: 100484 Int'l Des: 2026-196 Owner: SPXS Country: US Constellation: starlink operational

Current View

Loading 3D Globe...

About Starlink 37594

Starlink 37594 (NORAD 100484) is a starlink constellation satellite launched Aug 25, 2026 by SPXS of US. with a mass of 575.00 kg.

Upcoming Passes

Passes for default location (London). Set your location on the main map for personalized predictions.

Altitude History

Loading altitude history...

Two-Line Element Set

1 A0484U 26196M 26256.44710375 -.00788647 00000-0 -50339-2 0 9996
2 A0484 53.1578 276.8116 0000900 128.7675 231.3427 15.77788127 4248
Epoch: Sep 13, 2026 • Age: 170 hours

Current Status

Altitude 364.8 km
Apogee / Perigee N/A
Velocity 7.69 km/s
Sub-Earth Point -3.64°S, 127.21°W
Launch Date Aug 25, 2026
Age 26 days
Type internet

Technical Details

Classification Payload
Mass 575.00 kg
Dry Mass 530.00 kg
Length 0.30 m
Span 29.00 m
Shape ? Box + pan
Manufacturer SPXS
Bus Type Starlink V2MO
Phase Status In Orbit
Owner/State SPXS/US

Most Searched